Weather History for Boonville, MO

Change the Weather History Date:

Tuesday, December 24, 2013

  Actual Average Record
Temperature  
Mean Temperature 14 °F -  
Max Temperature 26 °F 37 °F 66 °F (1964)
Min Temperature 3 °F 19 °F -18 °F (1989)
Degree Days  
Heating Degree Days 50    
Moisture  
Dew Point 10 °F    
Average Humidity 78    
Maximum Humidity 88    
Minimum Humidity 63    
Precipitation  
Precipitation 0.00 in - - ()
Sea Level Pressure  
Sea Level Pressure 30.45 in    
Wind  
Wind Speed 3 mph (SE)    
Max Wind Speed 13 mph    
Max Gust Speed -    
Visibility 10 miles    
Events      
Averages and records for this station are not official NWS values.
T = Trace of Precipitation, MM = Missing Value Source: NWS Daily Summary

Daily Weather History Graph

Daily Weather History Graph

Search for Another Location

Airport:

Trip Planner

Search our weather history database for the weather conditions in past years. The results will help you decide how hot, cold, wet, or windy it might be!

Date:

Astronomy

Dec. 24, 2013 Rise Set
Actual Time 7:27 AM CST 4:53 PM CST
Civil Twilight 6:57 AM CST 5:23 PM CST
Nautical Twilight 6:23 AM CST 5:57 PM CST
Astronomical Twilight 5:51 AM CST 6:29 PM CST
Moon 11:58 PM CST (12/24) 11:25 AM CST (12/24)
Length of Visible Light 10h 26m
Length of Day
9h 26m
Waning Gibbous, 58% of the Moon is Illuminated
Dec 24
Waning Gibbous
Dec 25
Last Quarter
Jan 1
New
Jan 7
First Quarter
Jan 15
Full

Hourly Weather History & Observations

Time (CST) Temp. Windchill Dew Point Humidity Pressure Visibility Wind Dir Wind Speed Gust Speed Precip Events Conditions
12:15 AM 6.1 °F - -0.8 °F 73% 30.61 in 10.0 mi Calm Calm - N/A   Clear
12:35 AM 5.9 °F - -0.6 °F 75% 30.61 in 10.0 mi Calm Calm - N/A   Clear
12:55 AM 5.7 °F - -0.2 °F 77% 30.60 in 10.0 mi Calm Calm - N/A   Clear
1:15 AM 5.7 °F - -0.6 °F 75% 30.60 in 10.0 mi Calm Calm - N/A   Clear
1:35 AM 5.5 °F - -1.1 °F 74% 30.59 in 10.0 mi Calm Calm - N/A   Clear
1:55 AM 5.5 °F - -0.9 °F 75% 30.59 in 10.0 mi Calm Calm - N/A   Clear
2:15 AM 5.4 °F - -1.1 °F 75% 30.60 in 10.0 mi Calm Calm - N/A   Clear
2:35 AM 5.2 °F - -0.6 °F 77% 30.59 in 10.0 mi Calm Calm - N/A   Clear
2:55 AM 5.2 °F - -0.6 °F 77% 30.59 in 10.0 mi Calm Calm - N/A   Clear
3:15 AM 5.0 °F -2.1 °F -0.2 °F 79% 30.60 in 10.0 mi SW 3.5 mph - N/A   Clear
3:35 AM 5.4 °F - 0.7 °F 81% 30.60 in 10.0 mi Calm Calm - N/A   Clear
3:55 AM 5.4 °F - 0.9 °F 82% 30.59 in 10.0 mi Calm Calm - N/A   Clear
4:15 AM 5.0 °F - 0.7 °F 82% 30.58 in 10.0 mi Calm Calm - N/A   Clear
4:35 AM 5.0 °F - 0.9 °F 83% 30.58 in 10.0 mi Calm Calm - N/A   Clear
4:55 AM 4.5 °F - 0.1 °F 82% 30.58 in 10.0 mi Calm Calm - N/A   Clear
5:15 AM 4.5 °F - -0.2 °F 81% 30.58 in 10.0 mi Calm Calm - N/A   Clear
5:35 AM 4.6 °F - -0.2 °F 80% 30.57 in 10.0 mi Calm Calm - N/A   Clear
5:55 AM 4.3 °F - -0.2 °F 82% 30.57 in 10.0 mi Calm Calm - N/A   Clear
6:15 AM 3.9 °F - -0.4 °F 82% 30.58 in 10.0 mi Calm Calm - N/A   Clear
6:35 AM 3.9 °F -3.4 °F -0.6 °F 82% 30.59 in 10.0 mi South 3.5 mph - N/A   Clear
6:55 AM 3.6 °F - -0.8 °F 82% 30.58 in 10.0 mi Calm Calm - N/A   Clear
7:15 AM 3.4 °F -5.9 °F -0.8 °F 83% 30.57 in 10.0 mi SE 4.6 mph - N/A   Clear
7:35 AM 3.7 °F - -0.6 °F 82% 30.57 in 10.0 mi Calm Calm - N/A   Clear
7:55 AM 3.9 °F -3.4 °F -0.4 °F 82% 30.57 in 10.0 mi SSE 3.5 mph - N/A   Clear
8:15 AM 5.2 °F -1.9 °F 0.3 °F 80% 30.57 in 10.0 mi South 3.5 mph - N/A   Clear
8:35 AM 7.0 °F -3.3 °F 1.2 °F 77% 30.57 in 10.0 mi South 5.8 mph - N/A   Clear
8:55 AM 8.6 °F -1.3 °F 1.4 °F 73% 30.58 in 10.0 mi South 5.8 mph - N/A   Clear
9:15 AM 9.9 °F 0.2 °F 1.8 °F 70% 30.58 in 10.0 mi SSE 5.8 mph - N/A   Clear
9:35 AM 11.1 °F -1.6 °F 1.8 °F 66% 30.56 in 10.0 mi SSE 9.2 mph - N/A   Clear
9:55 AM 12.2 °F -0.2 °F 1.8 °F 63% 30.56 in 10.0 mi SE 9.2 mph - N/A   Clear
10:15 AM 13.3 °F 0.3 °F 3.2 °F 64% 30.55 in 10.0 mi SE 10.4 mph - N/A   Clear
10:35 AM 14.2 °F 0.0 °F 4.6 °F 66% 30.53 in 10.0 mi East 12.7 mph - N/A   Clear
10:55 AM 15.4 °F 4.6 °F 6.8 °F 69% 30.53 in 10.0 mi SE 8.1 mph - N/A   Clear
11:15 AM 16.5 °F 5.1 °F 8.4 °F 70% 30.53 in 10.0 mi SE 9.2 mph - N/A   Clear
11:35 AM 17.6 °F 6.4 °F 9.7 °F 71% 30.50 in 10.0 mi SE 9.2 mph - N/A   Clear
11:55 AM 18.3 °F 8.2 °F 10.4 °F 71% 30.48 in 10.0 mi SSE 8.1 mph - N/A   Clear
12:15 PM 19.0 °F 9.0 °F 12.2 °F 75% 30.47 in 10.0 mi SE 8.1 mph - N/A   Scattered Clouds
12:35 PM 19.2 °F 8.4 °F 12.4 °F 75% 30.45 in 10.0 mi SE 9.2 mph - N/A   Overcast
12:55 PM 19.2 °F 8.4 °F 12.9 °F 76% 30.44 in 10.0 mi SE 9.2 mph - N/A   Overcast
1:15 PM 19.8 °F 9.9 °F 14.0 °F 78% 30.43 in 10.0 mi ESE 8.1 mph - N/A   Overcast
1:35 PM 20.7 °F 11.9 °F 15.1 °F 79% 30.41 in 10.0 mi SE 6.9 mph - N/A   Overcast
1:55 PM 21.4 °F 11.1 °F 15.6 °F 78% 30.40 in 10.0 mi ESE 9.2 mph - N/A   Overcast
2:15 PM 21.9 °F 11.7 °F 16.9 °F 81% 30.38 in 10.0 mi ESE 9.2 mph - N/A   Overcast
2:35 PM 22.1 °F 12.8 °F 16.9 °F 80% 30.38 in 10.0 mi ESE 8.1 mph - N/A   Mostly Cloudy
2:55 PM 23.4 °F 12.2 °F 18.0 °F 80% 30.36 in 10.0 mi ESE 11.5 mph - N/A   Scattered Clouds
3:15 PM 23.7 °F 14.7 °F 18.3 °F 80% 30.35 in 10.0 mi SE 8.1 mph - N/A   Scattered Clouds
3:35 PM 23.7 °F 13.3 °F 18.3 °F 80% 30.35 in 10.0 mi SE 10.4 mph - N/A   Scattered Clouds
3:55 PM 23.2 °F 12.6 °F 18.1 °F 81% 30.35 in 10.0 mi ESE 10.4 mph - N/A   Mostly Cloudy
4:15 PM 23.0 °F 13.1 °F 18.3 °F 82% 30.34 in 10.0 mi SE 9.2 mph - N/A   Mostly Cloudy
4:35 PM 23.0 °F 13.9 °F 18.5 °F 83% 30.33 in 10.0 mi ESE 8.1 mph - N/A   Scattered Clouds
4:55 PM 22.5 °F 12.4 °F 18.1 °F 83% 30.32 in 10.0 mi SE 9.2 mph - N/A   Clear
5:15 PM 22.1 °F 12.8 °F 18.1 °F 85% 30.31 in 10.0 mi ESE 8.1 mph - N/A   Clear
5:35 PM 22.3 °F 13.9 °F 18.3 °F 85% 30.30 in 10.0 mi ESE 6.9 mph - N/A   Clear
5:55 PM 22.6 °F 13.4 °F 18.5 °F 84% 30.29 in 10.0 mi ESE 8.1 mph - N/A   Clear
6:15 PM 22.6 °F 12.6 °F 18.5 °F 84% 30.28 in 10.0 mi SE 9.2 mph - N/A   Clear
6:35 PM 22.6 °F 12.6 °F 18.5 °F 84% 30.27 in 10.0 mi SE 9.2 mph - N/A   Clear
6:55 PM 22.8 °F 12.2 °F 18.1 °F 82% 30.26 in 10.0 mi SE 10.4 mph - N/A   Clear
7:15 PM 23.0 °F 13.9 °F 17.8 °F 80% 30.26 in 10.0 mi SSE 8.1 mph - N/A   Clear
7:35 PM 23.2 °F 14.1 °F 18.0 °F 80% 30.27 in 10.0 mi SSE 8.1 mph - N/A   Clear
7:55 PM 23.9 °F 16.8 °F 17.6 °F 77% 30.27 in 10.0 mi SE 5.8 mph - N/A   Clear
8:15 PM 24.1 °F 16.0 °F 17.8 °F 77% 30.26 in 10.0 mi SSE 6.9 mph - N/A   Clear
8:35 PM 24.4 °F 15.6 °F 18.1 °F 77% 30.25 in 10.0 mi SSE 8.1 mph - N/A   Clear
8:55 PM 25.0 °F 17.1 °F 18.5 °F 76% 30.26 in 10.0 mi SSE 6.9 mph - N/A   Clear
9:15 PM 25.2 °F 18.3 °F 18.9 °F 77% 30.28 in 10.0 mi South 5.8 mph - N/A   Clear
9:35 PM 25.3 °F 18.5 °F 19.2 °F 78% 30.28 in 10.0 mi South 5.8 mph - N/A   Scattered Clouds
9:55 PM 25.5 °F 16.9 °F 19.8 °F 79% 30.28 in 10.0 mi South 8.1 mph - N/A   Mostly Cloudy
10:15 PM 25.5 °F 21.3 °F 20.3 °F 81% 30.29 in 10.0 mi SSW 3.5 mph - N/A   Overcast
10:35 PM 25.7 °F - 20.3 °F 80% 30.30 in 10.0 mi Calm Calm - N/A   Overcast
10:55 PM 25.7 °F 21.5 °F 21.0 °F 82% 30.29 in 10.0 mi South 3.5 mph - N/A   Overcast
11:15 PM 25.9 °F 21.7 °F 21.9 °F 85% 30.29 in 10.0 mi South 3.5 mph - N/A   Overcast
11:35 PM 26.1 °F 21.9 °F 22.3 °F 86% 30.29 in 10.0 mi South 3.5 mph - N/A   Overcast
11:55 PM 26.2 °F 22.1 °F 23.0 °F 88% 30.29 in 10.0 mi South 3.5 mph - N/A   Overcast